| time (UTC) | temp C | wind direction | speed KPH | gust KPH | rain 1hr cm | rain 24hr cm | rain mn cm | humidity % | barometer mb |
| 20260506003042 | 10 | 0 | 0.0 | 0.0 | 0.00 | 0.13 | 0.13 | 65 | 1008.0 |
| 20260506003028 | 11 | 0 | 0.0 | 1.6 | 0.00 | 0.18 | 0.18 | 63 | 1009.1 |
| 20260506002515 | 11 | 0 | 0.0 | 0.0 | 0.00 | 0.18 | 0.18 | 63 | 1009.0 |
| 20260506002011 | 11 | 0 | 0.0 | 0.0 | 0.00 | 0.18 | 0.18 | 63 | 1008.9 |
| 20260506001542 | 10 | 0 | 0.0 | 0.0 | 0.00 | 0.13 | 0.13 | 64 | 1008.0 |
| 20260506001530 | 11 | 0 | 0.0 | 0.0 | 0.00 | 0.18 | 0.18 | 63 | 1008.9 |
| 20260506001011 | 11 | 0 | 0.0 | 1.6 | 0.00 | 0.18 | 0.18 | 63 | 1008.9 |
| 20260506000511 | 11 | 0 | 0.0 | 3.2 | 0.00 | 0.18 | 0.18 | 63 | 1008.8 |
| 20260506000044 | 10 | 23 | 0.0 | 1.6 | 0.00 | 0.13 | 0.13 | 64 | 1007.7 |
| 20260506000031 | 11 | 0 | 0.0 | 3.2 | 0.00 | 0.18 | 0.18 | 62 | 1008.7 |
| 20260505235510 | 11 | 0 | 0.0 | 3.2 | 0.00 | 0.18 | 0.18 | 63 | 1008.7 |
| 20260505235012 | 11 | 0 | 0.0 | 3.2 | 0.00 | 0.18 | 0.18 | 63 | 1008.6 |
| 20260505234541 | 11 | 355 | 0.0 | 8.0 | 0.00 | 0.18 | 0.18 | 63 | 1008.4 |
| 20260505234536 | 10 | 0 | 0.0 | 1.6 | 0.00 | 0.13 | 0.13 | 66 | 1007.5 |
| 20260505234010 | 11 | 333 | 1.6 | 8.0 | 0.00 | 0.18 | 0.18 | 62 | 1008.4 |
| 20260505233514 | 11 | 337 | 0.0 | 8.0 | 0.00 | 0.18 | 0.18 | 63 | 1008.3 |
| 20260505233035 | 10 | 23 | 0.0 | 1.6 | 0.00 | 0.13 | 0.13 | 65 | 1007.5 |
| 20260505233033 | 11 | 332 | 3.2 | 8.0 | 0.00 | 0.18 | 0.18 | 62 | 1008.3 |
| 20260505232511 | 11 | 347 | 1.6 | 9.7 | 0.00 | 0.18 | 0.18 | 63 | 1008.3 |
| 20260505232011 | 11 | 336 | 1.6 | 9.7 | 0.00 | 0.18 | 0.18 | 63 | 1008.1 |
| 20260505231558 | 10 | 23 | 1.6 | 4.8 | 0.00 | 0.13 | 0.13 | 66 | 1007.4 |
| 20260505231531 | 11 | 9 | 4.8 | 9.7 | 0.00 | 0.18 | 0.18 | 63 | 1008.0 |
| 20260505231012 | 11 | 315 | 1.6 | 12.9 | 0.00 | 0.18 | 0.18 | 63 | 1008.0 |
| 20260505230509 | 11 | 0 | 3.2 | 12.9 | 0.00 | 0.18 | 0.18 | 65 | 1008.0 |
| 20260505230043 | 10 | 33 | 0.0 | 3.2 | 0.00 | 0.13 | 0.13 | 67 | 1007.5 |
| 20260505230028 | 11 | 330 | 1.6 | 11.3 | 0.00 | 0.18 | 0.18 | 68 | 1008.1 |
| 20260505225511 | 11 | 300 | 0.0 | 11.3 | 0.00 | 0.18 | 0.18 | 68 | 1008.2 |
| 20260505225011 | 11 | 0 | 1.6 | 9.7 | 0.00 | 0.18 | 0.18 | 68 | 1008.4 |
| 20260505224543 | 10 | 0 | 0.0 | 3.2 | 0.00 | 0.13 | 0.13 | 68 | 1007.7 |
| 20260505224531 | 11 | 0 | 0.0 | 11.3 | 0.00 | 0.18 | 0.18 | 68 | 1008.4 |
| 20260505224011 | 11 | 0 | 3.2 | 17.7 | 0.00 | 0.18 | 0.18 | 68 | 1008.4 |
| 20260505223513 | 11 | 298 | 3.2 | 17.7 | 0.00 | 0.18 | 0.18 | 68 | 1008.5 |
| 20260505223042 | 10 | 0 | 0.0 | 1.6 | 0.00 | 0.13 | 0.13 | 70 | 1007.6 |
| 20260505223028 | 11 | 309 | 8.0 | 17.7 | 0.00 | 0.18 | 0.18 | 68 | 1008.5 |
| 20260505222511 | 11 | 309 | 4.8 | 14.5 | 0.00 | 0.18 | 0.18 | 70 | 1008.4 |
| 20260505222014 | 11 | 264 | 1.6 | 12.9 | 0.00 | 0.18 | 0.18 | 70 | 1008.5 |
| 20260505221537 | 10 | 240 | 0.0 | 3.2 | 0.00 | 0.13 | 0.13 | 72 | 1007.8 |
| 20260505221528 | 11 | 286 | 4.8 | 20.9 | 0.00 | 0.18 | 0.18 | 71 | 1008.5 |
| 20260505221009 | 11 | 246 | 4.8 | 20.9 | 0.00 | 0.18 | 0.18 | 71 | 1008.5 |
| 20260505220512 | 11 | 314 | 4.8 | 14.5 | 0.00 | 0.18 | 0.18 | 72 | 1008.3 |
| 20260505220035 | 10 | 48 | 0.0 | 4.8 | 0.00 | 0.13 | 0.13 | 75 | 1007.5 |
| 20260505220027 | 11 | 303 | 3.2 | 14.5 | 0.00 | 0.18 | 0.18 | 74 | 1008.3 |
| 20260505215510 | 11 | 309 | 6.4 | 16.1 | 0.00 | 0.18 | 0.18 | 73 | 1008.3 |
| 20260505215012 | 11 | 285 | 6.4 | 16.1 | 0.00 | 0.18 | 0.18 | 74 | 1008.0 |
| 20260505214552 | 10 | 0 | 0.0 | 11.3 | 0.00 | 0.13 | 0.13 | 76 | 1007.4 |
| 20260505214536 | 11 | 0 | 3.2 | 14.5 | 0.00 | 0.18 | 0.18 | 75 | 1008.1 |
| 20260505214015 | 10 | 302 | 3.2 | 14.5 | 0.00 | 0.18 | 0.18 | 75 | 1008.0 |
| 20260505213510 | 10 | 345 | 4.8 | 12.9 | 0.00 | 0.18 | 0.18 | 75 | 1008.0 |
| 20260505213042 | 10 | 22 | 0.0 | 4.8 | 0.00 | 0.13 | 0.13 | 77 | 1007.3 |
| 20260505213027 | 10 | 281 | 3.2 | 17.7 | 0.03 | 0.18 | 0.18 | 75 | 1008.0 |
| 20260505212515 | 10 | 332 | 4.8 | 17.7 | 0.05 | 0.18 | 0.18 | 75 | 1008.1 |
| 20260505212013 | 10 | 323 | 6.4 | 14.5 | 0.08 | 0.18 | 0.18 | 76 | 1007.9 |
| 20260505211539 | 10 | 286 | 6.4 | 14.5 | 0.13 | 0.18 | 0.18 | 77 | 1007.8 |
| 20260505211536 | 10 | 44 | 0.0 | 1.6 | 0.03 | 0.13 | 0.13 | 79 | 1007.3 |
| 20260505211013 | 10 | 323 | 3.2 | 12.9 | 0.13 | 0.18 | 0.18 | 79 | 1008.0 |
| 20260505210516 | 10 | 321 | 1.6 | 11.3 | 0.13 | 0.18 | 0.18 | 80 | 1008.0 |
| 20260505210034 | 10 | 0 | 0.0 | 1.6 | 0.03 | 0.13 | 0.13 | 80 | 1007.4 |
| 20260505210029 | 11 | 350 | 3.2 | 11.3 | 0.13 | 0.18 | 0.18 | 80 | 1007.8 |
| 20260505205514 | 11 | 0 | 0.0 | 6.4 | 0.15 | 0.18 | 0.18 | 81 | 1007.9 |
| 20260505205012 | 11 | 303 | 1.6 | 9.7 | 0.18 | 0.18 | 0.18 | 80 | 1007.9 |
| 20260505204540 | 10 | 5 | 3.2 | 8.0 | 0.10 | 0.13 | 0.13 | 80 | 1007.1 |
| 20260505204530 | 11 | 284 | 1.6 | 11.3 | 0.18 | 0.18 | 0.18 | 79 | 1007.8 |
| 20260505204010 | 11 | 342 | 1.6 | 11.3 | 0.18 | 0.18 | 0.18 | 79 | 1007.7 |
| 20260505203511 | 11 | 342 | 1.6 | 6.4 | 0.18 | 0.18 | 0.18 | 78 | 1007.8 |
| 20260505203056 | 10 | 0 | 0.0 | 3.2 | 0.10 | 0.10 | 0.10 | 81 | 1007.3 |
| 20260505203037 | 11 | 0 | 1.6 | 9.7 | 0.15 | 0.15 | 0.15 | 77 | 1008.1 |
| 20260505202511 | 11 | 0 | 1.6 | 9.7 | 0.13 | 0.13 | 0.13 | 76 | 1007.7 |
| 20260505202012 | 12 | 313 | 3.2 | 12.9 | 0.08 | 0.08 | 0.08 | 75 | 1007.6 |
| 20260505201546 | 10 | 23 | 0.0 | 6.4 | 0.08 | 0.08 | 0.08 | 78 | 1007.0 |
| 20260505201528 | 12 | 281 | 0.0 | 14.5 | 0.05 | 0.05 | 0.05 | 74 | 1007.4 |
| 20260505201015 | 12 | 14 | 3.2 | 14.5 | 0.05 | 0.05 | 0.05 | 72 | 1007.4 |
| 20260505200512 | 12 | 345 | 4.8 | 14.5 | 0.05 | 0.05 | 0.05 | 71 | 1007.5 |
| 20260505200048 | 11 | 30 | 4.8 | 8.0 | 0.08 | 0.08 | 0.08 | 74 | 1006.9 |
| 20260505200030 | 12 | 0 | 4.8 | 22.5 | 0.05 | 0.05 | 0.05 | 69 | 1007.3 |
| 20260505195511 | 13 | 46 | 4.8 | 22.5 | 0.03 | 0.03 | 0.03 | 66 | 1007.4 |
| 20260505195013 | 13 | 298 | 6.4 | 17.7 | 0.00 | 0.00 | 0.00 | 63 | 1007.4 |
| 20260505194535 | 13 | 42 | 3.2 | 9.7 | 0.00 | 0.00 | 0.00 | 63 | 1006.7 |
| 20260505194528 | 14 | 297 | 4.8 | 17.7 | 0.00 | 0.00 | 0.00 | 60 | 1007.3 |
| 20260505194016 | 15 | 320 | 4.8 | 19.3 | 0.00 | 0.00 | 0.00 | 56 | 1007.1 |
| 20260505193513 | 15 | 274 | 6.4 | 22.5 | 0.00 | 0.00 | 0.00 | 54 | 1006.9 |
| 20260505193042 | 14 | 28 | 3.2 | 9.7 | 0.00 | 0.00 | 0.00 | 54 | 1006.2 |
| 20260505193027 | 15 | 304 | 6.4 | 22.5 | 0.00 | 0.00 | 0.00 | 54 | 1006.7 |
| 20260505192512 | 15 | 223 | 8.0 | 24.1 | 0.00 | 0.00 | 0.00 | 53 | 1006.6 |
| 20260505192009 | 15 | 289 | 9.7 | 24.1 | 0.00 | 0.00 | 0.00 | 51 | 1006.4 |
| 20260505191547 | 15 | 53 | 4.8 | 14.5 | 0.00 | 0.00 | 0.00 | 53 | 1005.8 |
| 20260505191528 | 16 | 323 | 9.7 | 24.1 | 0.00 | 0.00 | 0.00 | 51 | 1006.2 |
| 20260505191011 | 16 | 350 | 6.4 | 17.7 | 0.00 | 0.00 | 0.00 | 50 | 1006.1 |
| 20260505190512 | 16 | 301 | 4.8 | 17.7 | 0.00 | 0.00 | 0.00 | 50 | 1006.1 |
| 20260505190041 | 15 | 30 | 4.8 | 11.3 | 0.00 | 0.00 | 0.00 | 49 | 1005.7 |
| 20260505190027 | 16 | 317 | 3.2 | 14.5 | 0.00 | 0.00 | 0.00 | 50 | 1006.2 |
| 20260505185513 | 16 | 281 | 4.8 | 20.9 | 0.00 | 0.00 | 0.00 | 50 | 1006.2 |
| 20260505185012 | 16 | 247 | 6.4 | 20.9 | 0.00 | 0.00 | 0.00 | 49 | 1006.1 |
| 20260505184542 | 16 | 258 | 6.4 | 16.1 | 0.00 | 0.00 | 0.00 | 49 | 1006.1 |
| 20260505184540 | 15 | 12 | 0.0 | 14.5 | 0.00 | 0.00 | 0.00 | 51 | 1005.5 |
| 20260505184016 | 16 | 259 | 3.2 | 19.3 | 0.00 | 0.00 | 0.00 | 50 | 1006.0 |
| 20260505183511 | 16 | 314 | 8.0 | 20.9 | 0.00 | 0.00 | 0.00 | 49 | 1006.0 |
| 20260505183037 | 15 | 41 | 0.0 | 16.1 | 0.00 | 0.00 | 0.00 | 51 | 1005.4 |
| 20260505182512 | 16 | 211 | 6.4 | 24.1 | 0.00 | 0.00 | 0.00 | 50 | 1005.8 |
| 20260505182014 | 16 | 242 | 4.8 | 19.3 | 0.00 | 0.00 | 0.00 | 51 | 1005.7 |
| 20260505181546 | 16 | 18 | 1.6 | 16.1 | 0.00 | 0.00 | 0.00 | 51 | 1005.1 |
| 20260505181530 | 16 | 238 | 3.2 | 27.4 | 0.00 | 0.00 | 0.00 | 52 | 1005.6 |
| 20260505181012 | 16 | 355 | 4.8 | 27.4 | 0.00 | 0.00 | 0.00 | 52 | 1005.6 |
| 20260505180516 | 17 | 323 | 4.8 | 20.9 | 0.00 | 0.00 | 0.00 | 52 | 1005.4 |
| 20260505180051 | 16 | 0 | 1.6 | 12.9 | 0.00 | 0.00 | 0.00 | 52 | 1004.8 |
| 20260505180029 | 17 | 179 | 6.4 | 17.7 | 0.00 | 0.00 | 0.00 | 53 | 1005.3 |
| 20260505175510 | 17 | 334 | 4.8 | 20.9 | 0.00 | 0.00 | 0.00 | 53 | 1005.3 |
| 20260505175013 | 17 | 233 | 6.4 | 20.9 | 0.00 | 0.00 | 0.00 | 52 | 1005.2 |
| 20260505174544 | 16 | 256 | 8.0 | 19.3 | 0.00 | 0.00 | 0.00 | 52 | 1004.5 |
| 20260505174529 | 17 | 171 | 11.3 | 20.9 | 0.00 | 0.00 | 0.00 | 52 | 1005.1 |
| 20260505174011 | 17 | 279 | 6.4 | 22.5 | 0.00 | 0.00 | 0.00 | 54 | 1004.9 |
| 20260505173510 | 17 | 259 | 9.7 | 25.7 | 0.00 | 0.00 | 0.00 | 54 | 1004.9 |
| 20260505173043 | 16 | 231 | 3.2 | 16.1 | 0.00 | 0.00 | 0.00 | 52 | 1004.2 |
| 20260505173029 | 17 | 216 | 8.0 | 25.7 | 0.00 | 0.00 | 0.00 | 54 | 1004.8 |
| 20260505172511 | 17 | 236 | 9.7 | 25.7 | 0.00 | 0.00 | 0.00 | 55 | 1004.9 |
| 20260505172010 | 17 | 238 | 11.3 | 25.7 | 0.00 | 0.00 | 0.00 | 55 | 1004.8 |
| 20260505171544 | 17 | 22 | 3.2 | 11.3 | 0.00 | 0.00 | 0.00 | 54 | 1003.8 |
| 20260505171528 | 17 | 222 | 9.7 | 20.9 | 0.00 | 0.00 | 0.00 | 57 | 1004.7 |
| 20260505171010 | 17 | 292 | 6.4 | 24.1 | 0.00 | 0.00 | 0.00 | 59 | 1004.5 |
| 20260505170512 | 16 | 202 | 12.9 | 24.1 | 0.00 | 0.00 | 0.00 | 60 | 1004.6 |
| 20260505170055 | 17 | 231 | 3.2 | 11.3 | 0.00 | 0.00 | 0.00 | 56 | 1003.6 |
| 20260505170035 | 16 | 205 | 6.4 | 20.9 | 0.00 | 0.00 | 0.00 | 61 | 1004.4 |
| 20260505165510 | 16 | 227 | 8.0 | 22.5 | 0.00 | 0.00 | 0.00 | 62 | 1004.4 |
| 20260505165010 | 16 | 244 | 11.3 | 22.5 | 0.00 | 0.00 | 0.00 | 62 | 1004.4 |
| 20260505164543 | 16 | 257 | 3.2 | 12.9 | 0.00 | 0.00 | 0.00 | 61 | 1003.5 |
| 20260505164535 | 16 | 252 | 6.4 | 17.7 | 0.00 | 0.00 | 0.00 | 62 | 1004.3 |
| 20260505164011 | 16 | 251 | 3.2 | 19.3 | 0.00 | 0.00 | 0.00 | 63 | 1004.3 |
| 20260505163510 | 16 | 282 | 4.8 | 20.9 | 0.00 | 0.00 | 0.00 | 64 | 1004.6 |
| 20260505163045 | 16 | 198 | 3.2 | 11.3 | 0.00 | 0.00 | 0.00 | 64 | 1003.9 |
| 20260505163028 | 16 | 286 | 8.0 | 20.9 | 0.00 | 0.00 | 0.00 | 64 | 1004.6 |
| 20260505162513 | 16 | 229 | 6.4 | 22.5 | 0.00 | 0.00 | 0.00 | 65 | 1004.7 |
| 20260505162012 | 16 | 302 | 6.4 | 27.4 | 0.00 | 0.00 | 0.00 | 65 | 1004.8 |
| 20260505161540 | 15 | 215 | 4.8 | 12.9 | 0.00 | 0.00 | 0.00 | 65 | 1003.9 |
| 20260505161526 | 16 | 200 | 9.7 | 27.4 | 0.00 | 0.00 | 0.00 | 65 | 1004.7 |
| 20260505161011 | 16 | 227 | 11.3 | 32.2 | 0.00 | 0.00 | 0.00 | 66 | 1004.7 |
| 20260505160516 | 16 | 266 | 8.0 | 32.2 | 0.00 | 0.00 | 0.00 | 66 | 1004.5 |
| 20260505153047 | 15 | 37 | 1.6 | 6.4 | 0.00 | 0.00 | 0.00 | 67 | 1003.5 |
| 20260505153028 | 16 | 269 | 6.4 | 29.0 | 0.00 | 0.00 | 0.00 | 70 | 1004.1 |
| 20260505152511 | 16 | 236 | 9.7 | 19.3 | 0.00 | 0.00 | 0.00 | 70 | 1004.1 |
| 20260505152011 | 16 | 281 | 1.6 | 11.3 | 0.00 | 0.00 | 0.00 | 68 | 1004.0 |
| 20260505151557 | 15 | 8 | 1.6 | 8.0 | 0.00 | 0.00 | 0.00 | 68 | 1003.2 |
| 20260505151535 | 16 | 355 | 3.2 | 14.5 | 0.00 | 0.00 | 0.00 | 68 | 1003.7 |
| 20260505151010 | 16 | 306 | 4.8 | 14.5 | 0.00 | 0.00 | 0.00 | 68 | 1003.6 |
| 20260505150513 | 16 | 42 | 4.8 | 14.5 | 0.00 | 0.00 | 0.00 | 67 | 1003.5 |
| 20260505140512 | 18 | 231 | 6.4 | 16.1 | 0.00 | 0.00 | 0.00 | 68 | 1002.3 |
| 20260505125013 | 16 | 255 | 6.4 | 17.7 | 0.00 | 0.00 | 0.00 | 71 | 1001.3 |
| 20260505124540 | 16 | 229 | 4.8 | 12.9 | 0.00 | 0.00 | 0.00 | 73 | 1000.4 |
| 20260505124534 | 16 | 236 | 4.8 | 17.7 | 0.00 | 0.00 | 0.00 | 71 | 1001.2 |
| 20260505124014 | 16 | 248 | 9.7 | 17.7 | 0.00 | 0.00 | 0.00 | 71 | 1001.3 |
| 20260505123512 | 16 | 231 | 6.4 | 14.5 | 0.00 | 0.00 | 0.00 | 71 | 1001.2 |
| 20260505123037 | 15 | 243 | 1.6 | 8.0 | 0.00 | 0.00 | 0.00 | 74 | 999.9 |
| 20260505123030 | 16 | 211 | 4.8 | 11.3 | 0.00 | 0.00 | 0.00 | 72 | 1000.9 |
| 20260505122513 | 16 | 234 | 3.2 | 11.3 | 0.00 | 0.00 | 0.00 | 72 | 1000.8 |
| 20260505122015 | 16 | 252 | 4.8 | 12.9 | 0.00 | 0.00 | 0.00 | 72 | 1000.7 |
| 20260505121555 | 15 | 253 | 3.2 | 8.0 | 0.00 | 0.00 | 0.00 | 75 | 1000.0 |
| 20260505121536 | 16 | 248 | 4.8 | 12.9 | 0.00 | 0.00 | 0.00 | 72 | 1000.8 |
| 20260505121015 | 15 | 229 | 3.2 | 16.1 | 0.00 | 0.00 | 0.00 | 73 | 1000.9 |
| 20260505120515 | 15 | 219 | 6.4 | 16.1 | 0.00 | 0.00 | 0.00 | 73 | 1001.1 |
| 20260505120044 | 15 | 234 | 3.2 | 11.3 | 0.00 | 0.00 | 0.00 | 76 | 1000.2 |
| 20260505120029 | 15 | 252 | 4.8 | 19.3 | 0.00 | 0.00 | 0.00 | 73 | 1001.1 |
| 20260505115511 | 15 | 246 | 6.4 | 19.3 | 0.00 | 0.00 | 0.00 | 73 | 1001.1 |
| 20260505115015 | 15 | 279 | 9.7 | 19.3 | 0.00 | 0.00 | 0.00 | 73 | 1001.1 |
| 20260505114541 | 14 | 255 | 3.2 | 9.7 | 0.00 | 0.00 | 0.00 | 77 | 1000.1 |
| 20260505114529 | 15 | 230 | 8.0 | 22.5 | 0.00 | 0.00 | 0.00 | 73 | 1000.9 |
| 20260505114012 | 15 | 223 | 6.4 | 22.5 | 0.00 | 0.00 | 0.00 | 74 | 1000.9 |
| 20260505113511 | 15 | 240 | 6.4 | 20.9 | 0.00 | 0.00 | 0.00 | 74 | 1000.7 |
| 20260505113040 | 14 | 237 | 6.4 | 14.5 | 0.00 | 0.00 | 0.00 | 77 | 999.9 |
| 20260505112513 | 15 | 226 | 6.4 | 22.5 | 0.00 | 0.00 | 0.00 | 74 | 1000.7 |
| 20260505112015 | 15 | 212 | 8.0 | 22.5 | 0.00 | 0.00 | 0.00 | 75 | 1000.8 |
| 20260505111544 | 14 | 244 | 6.4 | 17.7 | 0.00 | 0.00 | 0.00 | 78 | 999.8 |
| 20260505111540 | 15 | 254 | 8.0 | 22.5 | 0.00 | 0.00 | 0.00 | 75 | 1000.7 |
| 20260505111014 | 15 | 250 | 8.0 | 22.5 | 0.00 | 0.00 | 0.00 | 75 | 1000.6 |
| 20260505110514 | 15 | 252 | 6.4 | 16.1 | 0.00 | 0.00 | 0.00 | 75 | 1000.6 |
| 20260505101552 | 14 | 250 | 6.4 | 17.7 | 0.00 | 0.00 | 0.00 | 77 | 998.9 |
| 20260505101010 | 15 | 241 | 4.8 | 14.5 | 0.00 | 0.00 | 0.00 | 75 | 999.8 |
| 20260505100509 | 15 | 254 | 6.4 | 19.3 | 0.00 | 0.00 | 0.00 | 75 | 999.8 |
| 20260505100043 | 14 | 262 | 4.8 | 17.7 | 0.00 | 0.00 | 0.00 | 76 | 998.7 |
| 20260505095512 | 15 | 212 | 6.4 | 14.5 | 0.00 | 0.00 | 0.00 | 75 | 999.7 |
| 20260505095013 | 15 | 225 | 4.8 | 11.3 | 0.00 | 0.00 | 0.00 | 75 | 999.7 |
| 20260505094540 | 14 | 233 | 9.7 | 16.1 | 0.00 | 0.00 | 0.00 | 76 | 998.8 |
| 20260505094012 | 15 | 221 | 6.4 | 16.1 | 0.00 | 0.00 | 0.00 | 75 | 999.7 |
| 20260505093512 | 15 | 226 | 8.0 | 16.1 | 0.00 | 0.00 | 0.00 | 75 | 999.7 |
| 20260505093043 | 14 | 245 | 9.7 | 17.7 | 0.00 | 0.00 | 0.00 | 75 | 998.8 |
| 20260505093039 | 15 | 255 | 8.0 | 16.1 | 0.00 | 0.00 | 0.00 | 74 | 999.6 |
| 20260505092513 | 15 | 250 | 6.4 | 16.1 | 0.00 | 0.00 | 0.00 | 74 | 999.7 |
| 20260505092013 | 15 | 219 | 8.0 | 19.3 | 0.00 | 0.00 | 0.00 | 74 | 999.6 |
| 20260505091540 | 14 | 162 | 8.0 | 17.7 | 0.00 | 0.00 | 0.00 | 75 | 998.7 |
| 20260505091530 | 15 | 207 | 8.0 | 19.3 | 0.00 | 0.00 | 0.00 | 74 | 999.6 |
| 20260505091011 | 15 | 231 | 6.4 | 12.9 | 0.00 | 0.00 | 0.00 | 74 | 999.7 |
| 20260505090511 | 15 | 230 | 6.4 | 16.1 | 0.00 | 0.00 | 0.00 | 74 | 999.5 |
| 20260505090057 | 15 | 243 | 8.0 | 16.1 | 0.00 | 0.00 | 0.00 | 75 | 998.6 |
| 20260505090032 | 15 | 220 | 8.0 | 17.7 | 0.00 | 0.00 | 0.00 | 74 | 999.5 |
| 20260505085511 | 15 | 209 | 8.0 | 30.6 | 0.00 | 0.00 | 0.00 | 74 | 999.6 |
| 20260505085011 | 15 | 250 | 8.0 | 30.6 | 0.00 | 0.00 | 0.00 | 73 | 999.4 |
| 20260505084551 | 15 | 251 | 8.0 | 22.5 | 0.00 | 0.00 | 0.00 | 74 | 998.6 |
| 20260505084530 | 15 | 227 | 8.0 | 17.7 | 0.00 | 0.00 | 0.00 | 74 | 999.5 |
| 20260505084011 | 15 | 244 | 8.0 | 29.0 | 0.00 | 0.00 | 0.00 | 73 | 999.4 |
| 20260505083510 | 15 | 229 | 8.0 | 29.0 | 0.00 | 0.00 | 0.00 | 73 | 999.6 |
| 20260505083040 | 15 | 229 | 12.9 | 20.9 | 0.00 | 0.00 | 0.00 | 73 | 998.7 |
| 20260505083036 | 15 | 236 | 9.7 | 27.4 | 0.00 | 0.00 | 0.00 | 73 | 999.7 |
| 20260505082512 | 16 | 219 | 9.7 | 19.3 | 0.00 | 0.00 | 0.00 | 72 | 999.6 |
| 20260505082014 | 16 | 232 | 8.0 | 19.3 | 0.00 | 0.00 | 0.00 | 72 | 999.7 |
| 20260505081544 | 15 | 261 | 8.0 | 22.5 | 0.00 | 0.00 | 0.00 | 73 | 998.8 |
| 20260505081530 | 16 | 250 | 11.3 | 17.7 | 0.00 | 0.00 | 0.00 | 71 | 999.7 |
| 20260505081015 | 16 | 245 | 8.0 | 16.1 | 0.00 | 0.00 | 0.00 | 71 | 999.9 |
| 20260505080517 | 16 | 234 | 6.4 | 19.3 | 0.00 | 0.00 | 0.00 | 71 | 1000.0 |
| 20260505080038 | 16 | 243 | 8.0 | 17.7 | 0.00 | 0.00 | 0.00 | 73 | 999.1 |
| 20260505080030 | 16 | 254 | 8.0 | 19.3 | 0.00 | 0.00 | 0.00 | 71 | 1000.0 |
| 20260505075512 | 16 | 284 | 4.8 | 14.5 | 0.00 | 0.00 | 0.00 | 71 | 1000.1 |
| 20260505075012 | 17 | 202 | 8.0 | 19.3 | 0.00 | 0.00 | 0.00 | 70 | 1000.0 |
| 20260505074535 | 15 | 242 | 6.4 | 14.5 | 0.00 | 0.00 | 0.00 | 73 | 999.0 |
| 20260505074529 | 17 | 227 | 6.4 | 19.3 | 0.00 | 0.00 | 0.00 | 70 | 999.9 |
| 20260505074012 | 17 | 211 | 4.8 | 20.9 | 0.00 | 0.00 | 0.00 | 70 | 1000.0 |
| 20260505073509 | 17 | 250 | 9.7 | 20.9 | 0.00 | 0.00 | 0.00 | 70 | 1000.0 |
| 20260505073038 | 15 | 240 | 8.0 | 14.5 | 0.00 | 0.00 | 0.00 | 72 | 999.1 |
| 20260505073030 | 17 | 254 | 8.0 | 19.3 | 0.00 | 0.00 | 0.00 | 70 | 999.9 |
| 20260505072511 | 17 | 250 | 9.7 | 19.3 | 0.00 | 0.00 | 0.00 | 71 | 999.9 |
| 20260505072012 | 16 | 238 | 9.7 | 19.3 | 0.00 | 0.00 | 0.00 | 71 | 999.8 |
| 20260505071540 | 15 | 252 | 4.8 | 14.5 | 0.00 | 0.00 | 0.00 | 71 | 998.9 |
| 20260505071529 | 16 | 249 | 8.0 | 22.5 | 0.00 | 0.00 | 0.00 | 71 | 999.7 |
| 20260505071013 | 16 | 262 | 8.0 | 22.5 | 0.00 | 0.00 | 0.00 | 71 | 999.7 |
| 20260505070513 | 16 | 273 | 9.7 | 22.5 | 0.00 | 0.00 | 0.00 | 71 | 999.8 |
| 20260505070044 | 15 | 247 | 6.4 | 16.1 | 0.00 | 0.00 | 0.00 | 71 | 998.9 |
| 20260505070030 | 16 | 243 | 4.8 | 14.5 | 0.00 | 0.00 | 0.00 | 72 | 999.9 |
| 20260505065513 | 15 | 228 | 3.2 | 11.3 | 0.00 | 0.00 | 0.00 | 72 | 1000.0 |
| 20260505065013 | 15 | 236 | 4.8 | 12.9 | 0.00 | 0.00 | 0.00 | 72 | 1000.1 |
| 20260505064535 | 15 | 267 | 4.8 | 11.3 | 0.00 | 0.00 | 0.00 | 71 | 999.1 |
| 20260505064527 | 15 | 243 | 3.2 | 17.7 | 0.00 | 0.00 | 0.00 | 73 | 1000.1 |
| 20260505064011 | 15 | 205 | 3.2 | 17.7 | 0.00 | 0.00 | 0.00 | 73 | 1000.1 |
| 20260505063512 | 15 | 225 | 3.2 | 9.7 | 0.00 | 0.00 | 0.00 | 72 | 1000.1 |
| 20260505063039 | 15 | 224 | 3.2 | 14.5 | 0.00 | 0.00 | 0.00 | 72 | 999.3 |
| 20260505063029 | 15 | 217 | 4.8 | 9.7 | 0.00 | 0.00 | 0.00 | 72 | 1000.2 |
| 20260505062523 | 15 | 257 | 1.6 | 8.0 | 0.00 | 0.00 | 0.00 | 71 | 1000.2 |
| 20260505062515 | 15 | 197 | 3.2 | 17.7 | 0.00 | 0.00 | 0.00 | 70 | 1000.2 |
| 20260505061546 | 14 | 253 | 4.8 | 12.9 | 0.00 | 0.00 | 0.00 | 72 | 999.4 |
| 20260505061529 | 16 | 218 | 3.2 | 17.7 | 0.00 | 0.00 | 0.00 | 70 | 1000.3 |
| 20260505061013 | 16 | 220 | 8.0 | 17.7 | 0.00 | 0.00 | 0.00 | 71 | 1000.4 |
| 20260505060511 | 15 | 232 | 6.4 | 16.1 | 0.00 | 0.00 | 0.00 | 71 | 1000.4 |
| 20260505060046 | 14 | 250 | 4.8 | 16.1 | 0.00 | 0.00 | 0.00 | 72 | 999.6 |
| 20260505060026 | 15 | 231 | 8.0 | 16.1 | 0.00 | 0.00 | 0.00 | 72 | 1000.5 |
| 20260505055511 | 15 | 263 | 6.4 | 14.5 | 0.00 | 0.00 | 0.00 | 72 | 1000.7 |
| 20260505055013 | 15 | 228 | 8.0 | 14.5 | 0.00 | 0.00 | 0.00 | 72 | 1000.7 |
| 20260505054545 | 14 | 238 | 6.4 | 11.3 | 0.00 | 0.00 | 0.00 | 72 | 999.7 |
| 20260505054541 | 15 | 213 | 6.4 | 14.5 | 0.00 | 0.00 | 0.00 | 72 | 1000.6 |
| 20260505054015 | 14 | 241 | 6.4 | 14.5 | 0.00 | 0.00 | 0.00 | 73 | 1000.6 |
| 20260505053513 | 14 | 218 | 6.4 | 12.9 | 0.00 | 0.00 | 0.00 | 74 | 1000.6 |
| 20260505053042 | 15 | 254 | 6.4 | 14.5 | 0.00 | 0.00 | 0.00 | 72 | 999.5 |
| 20260505053029 | 14 | 223 | 3.2 | 9.7 | 0.00 | 0.00 | 0.00 | 73 | 1000.6 |
| 20260505052512 | 14 | 219 | 3.2 | 11.3 | 0.00 | 0.00 | 0.00 | 73 | 1000.4 |
| 20260505052012 | 15 | 157 | 4.8 | 12.9 | 0.00 | 0.00 | 0.00 | 72 | 1000.5 |
| 20260505051544 | 15 | 205 | 8.0 | 14.5 | 0.00 | 0.00 | 0.00 | 73 | 999.6 |
| 20260505051528 | 15 | 213 | 4.8 | 12.9 | 0.00 | 0.00 | 0.00 | 73 | 1000.5 |
| 20260505051014 | 15 | 214 | 4.8 | 16.1 | 0.00 | 0.00 | 0.00 | 73 | 1000.5 |
| 20260505050514 | 15 | 269 | 8.0 | 16.1 | 0.00 | 0.00 | 0.00 | 73 | 1000.7 |
| 20260505041539 | 16 | 259 | 6.4 | 16.1 | 0.00 | 0.00 | 0.00 | 69 | 999.6 |
| 20260505041531 | 15 | 223 | 8.0 | 22.5 | 0.00 | 0.00 | 0.00 | 71 | 1000.7 |
| 20260505041013 | 15 | 208 | 11.3 | 22.5 | 0.00 | 0.00 | 0.00 | 70 | 1000.6 |
| 20260505040513 | 15 | 190 | 12.9 | 20.9 | 0.00 | 0.00 | 0.00 | 70 | 1000.5 |
| 20260505040040 | 16 | 194 | 11.3 | 22.5 | 0.00 | 0.00 | 0.00 | 70 | 1000.6 |
| 20260505040037 | 16 | 214 | 8.0 | 27.4 | 0.00 | 0.00 | 0.00 | 67 | 999.8 |
| 20260505035514 | 16 | 278 | 12.9 | 22.5 | 0.00 | 0.00 | 0.00 | 69 | 1000.7 |
| 20260505035010 | 16 | 242 | 8.0 | 17.7 | 0.00 | 0.00 | 0.00 | 70 | 1000.8 |
| 20260505034536 | 15 | 197 | 6.4 | 14.5 | 0.00 | 0.00 | 0.00 | 70 | 1000.9 |
| 20260505034010 | 15 | 214 | 4.8 | 12.9 | 0.00 | 0.00 | 0.00 | 68 | 1001.0 |
| 20260505033510 | 15 | 229 | 3.2 | 12.9 | 0.00 | 0.00 | 0.00 | 67 | 1001.0 |
| 20260505033057 | 16 | 243 | 4.8 | 14.5 | 0.00 | 0.00 | 0.00 | 62 | 1000.0 |
| 20260505033026 | 15 | 192 | 3.2 | 12.9 | 0.00 | 0.00 | 0.00 | 66 | 1001.0 |
| 20260505032513 | 16 | 208 | 3.2 | 16.1 | 0.00 | 0.00 | 0.00 | 65 | 1001.0 |
| 20260505032013 | 16 | 202 | 6.4 | 22.5 | 0.00 | 0.00 | 0.00 | 64 | 1001.1 |
| 20260505031542 | 16 | 235 | 6.4 | 24.1 | 0.00 | 0.00 | 0.00 | 60 | 1000.2 |
| 20260505031527 | 16 | 224 | 6.4 | 22.5 | 0.00 | 0.00 | 0.00 | 63 | 1001.1 |
| 20260505031013 | 16 | 226 | 8.0 | 22.5 | 0.00 | 0.00 | 0.00 | 62 | 1001.1 |
| 20260505030513 | 16 | 198 | 8.0 | 17.7 | 0.00 | 0.00 | 0.00 | 61 | 1001.2 |
| 20260505030040 | 17 | 259 | 4.8 | 20.9 | 0.00 | 0.00 | 0.00 | 57 | 1000.5 |
| 20260505030028 | 17 | 208 | 9.7 | 17.7 | 0.00 | 0.00 | 0.00 | 59 | 1001.3 |
| 20260505025516 | 17 | 219 | 6.4 | 19.3 | 0.00 | 0.00 | 0.00 | 58 | 1001.2 |
| 20260505025011 | 17 | 231 | 8.0 | 19.3 | 0.00 | 0.00 | 0.00 | 57 | 1001.4 |
| 20260505024536 | 17 | 215 | 6.4 | 20.9 | 0.00 | 0.00 | 0.00 | 54 | 1000.5 |
| 20260505024528 | 17 | 242 | 8.0 | 19.3 | 0.00 | 0.00 | 0.00 | 56 | 1001.4 |
| 20260505024012 | 17 | 217 | 8.0 | 17.7 | 0.00 | 0.00 | 0.00 | 56 | 1001.4 |
| 20260505023512 | 17 | 267 | 8.0 | 17.7 | 0.00 | 0.00 | 0.00 | 54 | 1001.5 |
| 20260505023044 | 17 | 257 | 9.7 | 25.7 | 0.00 | 0.00 | 0.00 | 52 | 1000.7 |
| 20260505023028 | 17 | 253 | 8.0 | 19.3 | 0.00 | 0.00 | 0.00 | 53 | 1001.5 |
| 20260505022510 | 17 | 219 | 8.0 | 19.3 | 0.00 | 0.00 | 0.00 | 52 | 1001.6 |
| 20260505022011 | 17 | 225 | 8.0 | 22.5 | 0.00 | 0.00 | 0.00 | 51 | 1001.7 |
| 20260505021540 | 18 | 233 | 6.4 | 17.7 | 0.00 | 0.00 | 0.00 | 47 | 1000.8 |
| 20260505021529 | 17 | 198 | 8.0 | 22.5 | 0.00 | 0.00 | 0.00 | 51 | 1001.7 |
| 20260505021016 | 17 | 218 | 8.0 | 16.1 | 0.00 | 0.00 | 0.00 | 50 | 1001.7 |
| 20260505020512 | 17 | 202 | 8.0 | 17.7 | 0.00 | 0.00 | 0.00 | 50 | 1001.5 |
| 20260505020046 | 18 | 242 | 3.2 | 12.9 | 0.00 | 0.00 | 0.00 | 44 | 1000.7 |
| 20260505020037 | 17 | 201 | 8.0 | 17.7 | 0.00 | 0.00 | 0.00 | 50 | 1001.5 |
| 20260505015513 | 17 | 218 | 6.4 | 20.9 | 0.00 | 0.00 | 0.00 | 49 | 1001.4 |
| 20260505015016 | 17 | 234 | 6.4 | 20.9 | 0.00 | 0.00 | 0.00 | 49 | 1001.3 |
| 20260505014542 | 18 | 251 | 4.8 | 11.3 | 0.00 | 0.00 | 0.00 | 42 | 1000.5 |
| 20260505014530 | 17 | 239 | 6.4 | 20.9 | 0.00 | 0.00 | 0.00 | 48 | 1001.3 |
| 20260505014014 | 17 | 206 | 8.0 | 20.9 | 0.00 | 0.00 | 0.00 | 47 | 1001.4 |
| 20260505013512 | 17 | 210 | 8.0 | 20.9 | 0.00 | 0.00 | 0.00 | 47 | 1001.2 |
| 20260505013038 | 18 | 265 | 3.2 | 9.7 | 0.00 | 0.00 | 0.00 | 40 | 1000.4 |
| 20260505013030 | 17 | 243 | 3.2 | 9.7 | 0.00 | 0.00 | 0.00 | 47 | 1001.3 |
| 20260505012512 | 17 | 212 | 4.8 | 9.7 | 0.00 | 0.00 | 0.00 | 46 | 1001.2 |
| 20260505012012 | 17 | 222 | 3.2 | 9.7 | 0.00 | 0.00 | 0.00 | 45 | 1001.3 |
| 20260505011536 | 18 | 273 | 3.2 | 11.3 | 0.00 | 0.00 | 0.00 | 38 | 1000.5 |
| 20260505011530 | 18 | 219 | 3.2 | 8.0 | 0.00 | 0.00 | 0.00 | 44 | 1001.2 |
| 20260505011013 | 18 | 227 | 3.2 | 12.9 | 0.00 | 0.00 | 0.00 | 42 | 1001.2 |
| 20260505010554 | 18 | 210 | 4.8 | 12.9 | 0.00 | 0.00 | 0.00 | 41 | 1001.2 |
| 20260505010044 | 19 | 246 | 9.7 | 20.9 | 0.00 | 0.00 | 0.00 | 37 | 1000.5 |
| 20260505010031 | 19 | 217 | 6.4 | 16.1 | 0.00 | 0.00 | 0.00 | 40 | 1001.1 |
| 20260505005513 | 19 | 217 | 4.8 | 17.7 | 0.00 | 0.00 | 0.00 | 38 | 1001.0 |
| 20260505005012 | 20 | 269 | 8.0 | 17.7 | 0.00 | 0.00 | 0.00 | 37 | 1001.0 |
| 20260505004547 | 19 | 227 | 3.2 | 12.9 | 0.00 | 0.00 | 0.00 | 36 | 1000.4 |
| 20260505004528 | 20 | 243 | 8.0 | 17.7 | 0.00 | 0.00 | 0.00 | 36 | 1001.0 |
| 20260505004010 | 20 | 211 | 4.8 | 19.3 | 0.00 | 0.00 | 0.00 | 35 | 1001.0 |
| 20260505003516 | 20 | 204 | 6.4 | 19.3 | 0.00 | 0.00 | 0.00 | 34 | 1001.0 |